Powrót do katalogu

USA 466

AktywnyMilitariaVLEO
NORAD 62535·PAYLOAD·🇺🇸 United States

Wystrzelony Jan 10, 2025 z Vandenberg Space Force Base

Loading…

Następne Przeloty (najbliższe 24 godziny)

TLE

NieaktualneSource: Mike McCants

Epoka: Aug 27, 2026, 01:10 UTC

1 62535U 25005D   26239.04867314 0.00000000  00000-0  00000-0 0    01
2 62535  70.0140 223.8405 0002000 199.1802 160.8198 14.96713250    02

Śledź USA 466 w czasie rzeczywistym z AllMySat

Download on the App Store